Wilmington, DE

5:00 AM EDT on October 21, 2019 (GMT -0400)
New Castle County

Weather History for KILG - September, 2019

Change the Weather History Date:

Wednesday, September 18, 2019

  Actual Average Record
Temperature  
Mean Temperature 65 °F 67 °F  
Max Temperature 76 °F 77 °F 90 °F (1915)
Min Temperature 54 °F 57 °F 40 °F (1959)
Degree Days  
Heating Degree Days 0 2  
Month to date heating degree days 1 13  
Since 1 July heating degree days 1 15  
Cooling Degree Days 0 4  
Month to date cooling degree days 151 104  
Year to date cooling degree days 1381 1097  
Growing Degree Days 14 (Base 50)    
Moisture  
Dew Point 53 °F    
Average Humidity 69    
Maximum Humidity 100    
Minimum Humidity 38    
Precipitation  
Precipitation 0.00 in 0.16 in 2.54 in (2004)
Month to date precipitation 0.29 2.44  
Year to date precipitation 36.41 31.20  
Snow  
Snow 0.00 in 0.00 in 0.00 in (1894)
Month to date snowfall 0.0 0.0  
Since 1 July snowfall 0.0 0.0  
Since 1 September snowfall 0.0 0.0  
Snow Depth 0.00 in    
Sea Level Pressure  
Sea Level Pressure 30.21 in    
Wind  
Wind Speed 7 mph (NE)    
Max Wind Speed 15 mph    
Max Gust Speed 21 mph    
Visibility 10 miles    
Events      
T = Trace of Precipitation, MM = Missing Value Source: NWS Daily Summary

Daily Weather History Graph

Daily Weather History Graph

Search for Another Location

Airport or City:

Astronomy

Sep. 18, 2019 Rise Set
Actual Time 6:46 AM EDT 7:06 PM EDT
Civil Twilight 6:19 AM EDT 7:33 PM EDT
Nautical Twilight 5:47 AM EDT 8:05 PM EDT
Astronomical Twilight 5:15 AM EDT 8:37 PM EDT
Moon 9:40 PM EDT (9/18) 10:46 AM EDT (9/18)
Length of Visible Light 13h 14m
Length of Day
12h 20m
Waning Gibbous, 82% of the Moon is Illuminated
Sep 18
Waning Gibbous
Sep 21
Last Quarter
Sep 28
New
Oct 5
First Quarter
Oct 13
Full

Hourly Weather History & Observations

Time (EDT) Temp. Dew Point Humidity Pressure Visibility Wind Dir Wind Speed Gust Speed Precip Events Conditions
12:51 AM 60.1 °F 55.9 °F 86% 30.15 in 10.0 mi Calm Calm - N/A   Clear
1:51 AM 57.9 °F 55.0 °F 90% 30.16 in 10.0 mi NNW 3.5 mph - N/A   Clear
2:51 AM 57.0 °F 55.0 °F 93% 30.16 in 10.0 mi NNW 5.8 mph - N/A   Clear
3:51 AM 55.9 °F 55.0 °F 97% 30.16 in 10.0 mi NNW 3.5 mph - N/A   Clear
4:51 AM 55.0 °F 54.0 °F 96% 30.16 in 10.0 mi NW 4.6 mph - N/A   Clear
5:51 AM 55.0 °F 53.1 °F 93% 30.18 in 10.0 mi North 3.5 mph - N/A   Clear
6:51 AM 54.0 °F 52.0 °F 93% 30.19 in 10.0 mi North 5.8 mph - N/A   Clear
7:51 AM 57.9 °F 55.0 °F 90% 30.21 in 10.0 mi NNW 4.6 mph - N/A   Clear
8:51 AM 64.9 °F 55.0 °F 70% 30.22 in 10.0 mi North 3.5 mph - N/A   Clear
9:51 AM 69.1 °F 55.0 °F 61% 30.23 in 10.0 mi ENE 9.2 mph - N/A   Clear
10:51 AM 71.1 °F 55.9 °F 59% 30.23 in 10.0 mi NNE 10.4 mph - N/A   Partly Cloudy
11:51 AM 73.0 °F 54.0 °F 51% 30.23 in 10.0 mi NE 9.2 mph - N/A   Partly Cloudy
12:51 PM 72.0 °F 51.1 °F 48% 30.22 in 10.0 mi NE 10.4 mph - N/A   Mostly Cloudy
1:51 PM 75.0 °F 53.1 °F 46% 30.21 in 10.0 mi ENE 8.1 mph - N/A   Scattered Clouds
2:51 PM 72.0 °F 51.1 °F 48% 30.21 in 10.0 mi NNE 10.4 mph 19.6 mph N/A   Mostly Cloudy
3:51 PM 75.0 °F 48.9 °F 40% 30.20 in 10.0 mi ENE 9.2 mph - N/A   Clear
4:51 PM 75.0 °F 50.0 °F 41% 30.20 in 10.0 mi ENE 10.4 mph - N/A   Clear
5:51 PM 73.0 °F 48.9 °F 42% 30.21 in 10.0 mi NE 9.2 mph - N/A   Clear
6:51 PM 71.1 °F 48.0 °F 44% 30.22 in 10.0 mi ENE 6.9 mph - N/A   Partly Cloudy
7:51 PM 66.9 °F 52.0 °F 59% 30.25 in 10.0 mi ESE 12.7 mph - N/A   Clear
8:51 PM 64.0 °F 53.1 °F 67% 30.27 in 10.0 mi ESE 8.1 mph - N/A   Clear
9:51 PM 62.1 °F 53.1 °F 72% 30.28 in 10.0 mi ESE 8.1 mph - N/A   Clear
10:51 PM 61.0 °F 52.0 °F 72% 30.30 in 10.0 mi East 5.8 mph - N/A   Clear
11:51 PM 60.1 °F 51.1 °F 72% 30.30 in 10.0 mi East 5.8 mph - N/A   Clear